Martinsburg, WV

4:33 PM EST on November 22, 2019 (GMT -0500)
Eastern W Va Regional-Shepherd

Weather History for KMRB - September, 2019

Change the Weather History Date:

Saturday, September 21, 2019

  Actual Average Record
Temperature  
Mean Temperature 70 °F 63 °F  
Max Temperature 89 °F 75 °F 94 °F (1965)
Min Temperature 52 °F 52 °F 29 °F (1956)
Degree Days  
Heating Degree Days 0 4  
Month to date heating degree days 9 39  
Since 1 July heating degree days 10 46  
Cooling Degree Days 6 2  
Month to date cooling degree days 120 81  
Year to date cooling degree days 1171 873  
Growing Degree Days 20 (Base 50)    
Moisture  
Dew Point 61 °F    
Average Humidity 79    
Maximum Humidity 100    
Minimum Humidity 42    
Precipitation  
Precipitation 0.58 in 0.12 in 2.31 in (1979)
Month to date precipitation 0.75 2.51  
Year to date precipitation 34.27 28.75  
Sea Level Pressure  
Sea Level Pressure 30.19 in    
Wind  
Wind Speed 2 mph ()    
Max Wind Speed 24 mph    
Max Gust Speed 29 mph    
Visibility 7.0 miles    
Events Fog , Rain , Thunderstorm    
T = Trace of Precipitation, MM = Missing Value Source: Averaged Metar Reports

Daily Weather History Graph

Daily Weather History Graph

Search for Another Location

Airport or City:

Astronomy

Sep. 21, 2019 Rise Set
Actual Time 6:58 AM EDT 7:10 PM EDT
Civil Twilight 6:31 AM EDT 7:37 PM EDT
Nautical Twilight 6:00 AM EDT 8:09 PM EDT
Astronomical Twilight 5:28 AM EDT 8:41 PM EDT
Moon 11:49 PM EDT (9/21) 2:00 PM EDT (9/21)
Length of Visible Light 13h 06m
Length of Day
12h 12m
Waning Gibbous, 55% of the Moon is Illuminated
Sep 21
Waning Gibbous
Sep 21
Last Quarter
Sep 28
New
Oct 5
First Quarter
Oct 13
Full

Hourly Weather History & Observations

Time (EDT) Temp. Heat Index Dew Point Humidity Pressure Visibility Wind Dir Wind Speed Gust Speed Precip Events Conditions
12:53 AM 55.0 °F - 52.0 °F 89% 30.22 in 10.0 mi Calm Calm - N/A   Clear
1:53 AM 55.0 °F - 52.0 °F 89% 30.22 in 10.0 mi Calm Calm - N/A   Scattered Clouds
2:53 AM 54.0 °F - 52.0 °F 93% 30.22 in 10.0 mi Calm Calm - N/A   Clear
3:53 AM 53.1 °F - 51.1 °F 93% 30.22 in 10.0 mi Calm Calm - N/A   Partly Cloudy
4:53 AM 54.0 °F - 52.0 °F 93% 30.22 in 10.0 mi Calm Calm - N/A   Mostly Cloudy
5:53 AM 53.1 °F - 51.1 °F 93% 30.23 in 10.0 mi Calm Calm - N/A   Clear
6:53 AM 52.0 °F - 51.1 °F 97% 30.25 in 10.0 mi Calm Calm - N/A   Clear
7:53 AM 55.0 °F - 53.1 °F 93% 30.26 in 10.0 mi Calm Calm - N/A   Clear
8:53 AM 63.0 °F - 55.0 °F 75% 30.26 in 10.0 mi Calm Calm - N/A   Clear
9:53 AM 69.1 °F - 55.0 °F 61% 30.26 in 10.0 mi Calm Calm - N/A   Clear
10:53 AM 75.0 °F - 55.9 °F 51% 30.25 in 10.0 mi Calm Calm - N/A   Clear
11:53 AM 79.0 °F - 57.9 °F 48% 30.22 in 10.0 mi Variable 4.6 mph - N/A   Clear
12:53 PM 82.9 °F 83.2 °F 60.1 °F 46% 30.20 in 10.0 mi Calm Calm - N/A   Clear
1:53 PM 88.0 °F 88.4 °F 62.1 °F 42% 30.17 in 10.0 mi Calm Calm - N/A   Clear
2:53 PM 88.0 °F 88.4 °F 62.1 °F 42% 30.15 in 10.0 mi Variable 4.6 mph - N/A   Partly Cloudy
3:53 PM 86.0 °F 86.3 °F 62.1 °F 44% 30.13 in 10.0 mi North - - N/A   Partly Cloudy
4:53 PM 86.0 °F 86.8 °F 63.0 °F 46% 30.12 in 10.0 mi SE 4.6 mph - N/A   Mostly Cloudy
5:53 PM 84.9 °F 85.9 °F 63.0 °F 48% 30.13 in 10.0 mi East 5.8 mph - N/A   Partly Cloudy
6:53 PM 81.0 °F 82.2 °F 63.0 °F 54% 30.14 in 10.0 mi Calm Calm - N/A   Overcast
7:01 PM 81.0 °F 82.2 °F 63.0 °F 54% 30.14 in 10.0 mi SE 3.5 mph - N/A Thunderstorm Overcast
7:16 PM 81.0 °F 82.5 °F 64.0 °F 56% 30.15 in 10.0 mi Calm Calm - N/A Thunderstorm Thunderstorm
7:33 PM 73.0 °F - 68.0 °F 84% 30.19 in 2.5 mi West 21.9 mph 28.8 mph 0.10 in Rain , Thunderstorm Heavy Rain
7:38 PM 73.9 °F - 64.9 °F 73% 30.18 in 1.2 mi North 10.4 mph - 0.22 in Rain , Thunderstorm Heavy Thunderstorms and Rain
7:48 PM 69.8 °F - 68.0 °F 94% 30.18 in 1.0 mi NE 17.3 mph - 0.51 in Rain , Thunderstorm Heavy Thunderstorms and Rain
7:53 PM 70.0 °F - 68.0 °F 93% 30.17 in 1.5 mi NE 12.7 mph - 0.55 in Rain , Thunderstorm Heavy Thunderstorms and Rain
7:57 PM 70.0 °F - 68.0 °F 93% 30.17 in 2.0 mi ENE 12.7 mph - 0.02 in Rain , Thunderstorm Heavy Thunderstorms and Rain
8:05 PM 71.1 °F - 66.9 °F 87% 30.16 in 6.0 mi East 8.1 mph - 0.03 in Rain , Thunderstorm Light Thunderstorms and Rain
8:29 PM 69.1 °F - 66.9 °F 93% 30.17 in 10.0 mi Variable 3.5 mph - 0.03 in Thunderstorm Scattered Clouds
8:53 PM 70.0 °F - 66.9 °F 90% 30.16 in 10.0 mi Calm Calm - 0.03 in   Scattered Clouds
9:53 PM 68.0 °F - 66.9 °F 96% 30.18 in 3.0 mi Calm Calm - N/A   Clear
10:53 PM 66.9 °F - 66.9 °F 100% 30.18 in 3.0 mi Calm Calm - N/A   Clear
10:55 PM 66.9 °F - 66.9 °F 100% 30.19 in 1.8 mi Calm Calm - N/A   Clear
11:16 PM 66.9 °F - 66.9 °F 100% 30.19 in 2.5 mi Calm Calm - N/A   Clear
11:26 PM 66.9 °F - 66.9 °F 100% 30.19 in 1.0 mi Calm Calm - N/A   Clear
11:33 PM 66.9 °F - 66.0 °F 97% 30.19 in 0.8 mi Calm Calm - N/A   Mist
11:44 PM 66.0 °F - 66.0 °F 100% 30.19 in 0.8 mi Calm Calm - N/A   Clear
11:53 PM 66.0 °F - 66.0 °F 100% 30.18 in 0.5 mi Calm Calm - N/A Fog Fog